Flag for U.S.A. Weather past 2 weeks in French Lick, Indiana, U.S.A.

Now
30 °F

Clear.


Feels Like: 27 °F
Forecast: 26 / 40 °F
Wind: 3 mph from North

Location: Huntingburg Airport

Current Time: Dec 19, 2014 at 7:13:32 PM

Latest Report: Dec 19, 2014 at 6:35 PM


Visibility: 10 mi

Pressure: 30.30 "Hg

Humidity: 69%

Dew point: 21 °F

Location of French LickLocation

Historic Weather in French Lick — Graph

°F

French Lick temperature yesterday

Maximum temperature yesterday: 34 °F (at 2:15 PM)
Minimum temperature yesterday: 27 °F (at 4:55 AM)
Average temperature yesterday: 30 °F

Past Weeks' High & Low Weather Summary

 TemperatureHumidityPressure
High57 °F (Dec 5, 6:35 PM)94% (Dec 5, 11:35 AM)30.58 "Hg (Dec 5, 11:35 AM)
Low21 °F (Dec 12, 5:55 AM)56% (Dec 11, 3:35 PM)29.72 "Hg (Dec 16, 12:35 AM)
Average38 °F78%30.24 "Hg
* Reported Dec 4 5:15 PM — Dec 19 5:55 PM, French Lick, Weather by CustomWeather, © 2014

Note: Actual official high and low records may vary slightly from our data, if they occured in-between our weather recording intervals... More about our weather records

Advertising

French Lick weather history for previous 24 hours

 ConditionsComfort  
Time TempWeatherWind HumidityBarometerVisibility
5:55 PM
Dec 19
30 °FClear.3 mph69%30.29 "Hg10 mi
5:35 PM30 °FClear.6 mph69%30.28 "Hg10 mi
5:15 PM32 °FSunny.7 mph64%30.29 "Hg10 mi
4:55 PM34 °FSunny.6 mph60%30.30 "Hg10 mi
4:35 PM34 °FSunny.5 mph60%30.31 "Hg10 mi
4:15 PM34 °FSunny.6 mph65%30.31 "Hg10 mi
3:55 PM34 °FSunny.3 mph60%30.30 "Hg10 mi
3:35 PM34 °FSunny.6 mph65%30.30 "Hg9 mi
3:15 PM34 °FSunny.3 mph60%30.30 "Hg10 mi
2:55 PM34 °FSunny.3 mph60%30.28 "Hg10 mi
2:35 PM34 °FSunny.5 mph60%30.27 "Hg10 mi
2:15 PM34 °FSunny.6 mph65%30.26 "Hg10 mi
1:55 PM34 °FSunny.6 mph60%30.27 "Hg10 mi
1:35 PM32 °FSunny.7 mph64%30.27 "Hg9 mi
1:15 PM32 °FSunny.6 mph64%30.29 "Hg9 mi
12:55 PM32 °FSunny.No wind64%30.30 "Hg9 mi
12:35 PM30 °FSunny.3 mph69%30.31 "Hg9 mi
12:15 PM30 °FPassing clouds.3 mph69%30.31 "Hg8 mi
11:55 AM30 °FSunny.6 mph75%30.32 "Hg8 mi
11:35 AM30 °FSunny.No wind75%30.32 "Hg7 mi
11:15 AM30 °FPassing clouds.3 mph69%30.33 "Hg8 mi
10:55 AM28 °FPassing clouds.7 mph74%30.32 "Hg7 mi
10:35 AM28 °FPassing clouds.8 mph74%30.32 "Hg7 mi
10:15 AM28 °FPassing clouds.7 mph74%30.34 "Hg7 mi
9:55 AM28 °FSunny.6 mph74%30.34 "Hg7 mi
9:35 AM28 °FSunny.7 mph74%30.33 "Hg7 mi
9:15 AM27 °FSunny.7 mph80%30.32 "Hg6 mi
8:55 AM27 °FSunny.6 mph80%30.31 "Hg5 mi
8:35 AM25 °FSunny.6 mph86%30.31 "Hg6 mi
8:15 AM27 °FScattered clouds.5 mph80%30.32 "Hg7 mi
7:55 AM27 °FPassing clouds.5 mph80%30.33 "Hg7 mi
7:35 AM27 °FPassing clouds.7 mph80%30.30 "Hg8 mi
7:15 AM27 °FOvercast.7 mph80%30.29 "Hg8 mi
6:55 AM28 °FOvercast.9 mph74%30.28 "Hg10 mi
6:35 AM28 °FOvercast.7 mph74%30.28 "Hg10 mi
6:15 AM28 °FOvercast.7 mph74%30.28 "Hg10 mi
5:55 AM28 °FOvercast.7 mph74%30.29 "Hg10 mi
5:35 AM28 °FOvercast.5 mph74%30.29 "Hg10 mi
5:15 AM28 °FOvercast.6 mph74%30.28 "Hg10 mi
4:55 AM28 °FOvercast.6 mph74%30.28 "Hg10 mi
4:35 AM28 °FOvercast.5 mph80%30.28 "Hg10 mi
4:15 AM28 °FOvercast.5 mph74%30.28 "Hg10 mi
3:55 AM28 °FPassing clouds.5 mph74%30.28 "Hg10 mi
3:35 AM28 °FPassing clouds.5 mph74%30.28 "Hg10 mi
3:15 AM28 °FClear.6 mph74%30.28 "Hg10 mi
2:55 AM28 °FClear.6 mph74%30.28 "Hg10 mi
2:35 AM28 °FPassing clouds.3 mph74%30.27 "Hg10 mi
2:15 AM28 °FPassing clouds.5 mph80%30.27 "Hg10 mi
1:55 AM30 °FPassing clouds.6 mph75%30.27 "Hg10 mi
1:35 AM30 °FOvercast.5 mph75%30.27 "Hg10 mi
1:15 AM30 °FOvercast.6 mph75%30.27 "Hg10 mi
12:55 AM30 °FOvercast.5 mph80%30.28 "Hg8 mi
12:35 AM30 °FPartly cloudy.5 mph80%30.28 "Hg7 mi
12:15 AM30 °FMostly cloudy.5 mph80%30.29 "Hg7 mi
11:55 PM
Dec 18
30 °FPartly cloudy.3 mph80%30.29 "Hg7 mi
11:35 PM30 °FMostly cloudy.3 mph80%30.29 "Hg7 mi
11:15 PM30 °FOvercast.3 mph80%30.28 "Hg7 mi
10:35 PM30 °FMostly cloudy.3 mph75%30.28 "Hg7 mi
10:15 PM30 °FMostly cloudy.3 mph75%30.27 "Hg7 mi
9:55 PM30 °FPassing clouds.5 mph80%30.27 "Hg7 mi
9:35 PM30 °FPassing clouds.5 mph80%30.27 "Hg7 mi
9:15 PM30 °FPassing clouds.6 mph80%30.27 "Hg7 mi
8:55 PM30 °FPartly cloudy.5 mph80%30.27 "Hg8 mi
8:35 PM30 °FPartly cloudy.5 mph80%30.26 "Hg9 mi
8:15 PM30 °FPassing clouds.6 mph80%30.26 "Hg10 mi
7:55 PM32 °FOvercast.No wind75%30.26 "Hg10 mi
7:35 PM32 °FOvercast.5 mph75%30.25 "Hg10 mi
7:15 PM32 °FOvercast.3 mph75%30.25 "Hg10 mi
Weather by CustomWeather, © 2014

See weather overviewHow to use our weather pages